| time (UTC) | temp C | wind direction | speed KPH | gust KPH | rain 1hr cm | rain 24hr cm | rain mn cm | humidity % | barometer mb |
| 20260507051043 | 6 | 212 | 6.4 | 14.5 | 0.00 | 3.10 | 0.00 | 86 | 1007.3 |
| 20260507050048 | 6 | 194 | 8.0 | 11.3 | 0.00 | 3.10 | 0.00 | 86 | 1007.4 |
| 20260507045025 | 7 | 244 | 4.8 | 12.9 | 0.00 | 3.10 | 0.00 | 86 | 1007.6 |
| 20260507044033 | 7 | 172 | 6.4 | 14.5 | 0.00 | 3.10 | 0.00 | 86 | 1007.8 |
| 20260507043034 | 7 | 218 | 8.0 | 17.7 | 0.00 | 3.10 | 0.00 | 86 | 1007.8 |
| 20260507042045 | 7 | 292 | 9.7 | 16.1 | 0.00 | 3.10 | 0.00 | 86 | 1008.0 |
| 20260507041026 | 7 | 215 | 9.7 | 16.1 | 0.00 | 3.10 | 0.00 | 86 | 1008.0 |
| 20260507040055 | 7 | 250 | 4.8 | 19.3 | 0.00 | 3.10 | 0.61 | 86 | 1008.1 |
| 20260507035045 | 7 | 258 | 8.0 | 12.9 | 0.00 | 3.10 | 0.61 | 86 | 1008.1 |
| 20260507034026 | 7 | 237 | 6.4 | 12.9 | 0.00 | 3.10 | 0.61 | 86 | 1008.1 |
| 20260507033036 | 7 | 223 | 9.7 | 16.1 | 0.00 | 3.10 | 0.61 | 86 | 1008.3 |
| 20260507032036 | 7 | 207 | 6.4 | 9.7 | 0.00 | 3.10 | 0.61 | 85 | 1008.4 |
| 20260507031047 | 7 | 223 | 6.4 | 11.3 | 0.00 | 3.10 | 0.61 | 85 | 1008.3 |
| 20260507030052 | 7 | 213 | 3.2 | 12.9 | 0.00 | 3.10 | 0.61 | 84 | 1008.4 |
| 20260507025035 | 7 | 244 | 8.0 | 12.9 | 0.00 | 3.10 | 0.61 | 84 | 1008.3 |
| 20260507024044 | 7 | 251 | 9.7 | 14.5 | 0.00 | 3.10 | 0.61 | 84 | 1008.4 |
| 20260507023042 | 7 | 204 | 4.8 | 12.9 | 0.00 | 3.10 | 0.61 | 83 | 1008.5 |
| 20260507022052 | 7 | 200 | 4.8 | 12.9 | 0.00 | 3.10 | 0.61 | 83 | 1008.5 |
| 20260507021033 | 7 | 221 | 4.8 | 14.5 | 0.00 | 3.10 | 0.61 | 82 | 1008.6 |
| 20260507020044 | 7 | 229 | 9.7 | 14.5 | 0.00 | 3.10 | 0.61 | 81 | 1008.6 |
| 20260507015025 | 7 | 239 | 8.0 | 16.1 | 0.00 | 3.10 | 0.61 | 81 | 1008.8 |
| 20260507014051 | 7 | 216 | 8.0 | 16.1 | 0.00 | 3.10 | 0.61 | 81 | 1008.7 |
| 20260507013032 | 7 | 240 | 6.4 | 14.5 | 0.00 | 3.10 | 0.61 | 80 | 1008.9 |
| 20260507012042 | 7 | 215 | 6.4 | 14.5 | 0.00 | 3.10 | 0.61 | 80 | 1008.8 |
| 20260507011043 | 7 | 190 | 4.8 | 14.5 | 0.00 | 3.10 | 0.61 | 80 | 1008.7 |
| 20260507010050 | 7 | 179 | 4.8 | 14.5 | 0.00 | 3.10 | 0.61 | 80 | 1008.8 |
| 20260507005030 | 7 | 197 | 6.4 | 12.9 | 0.00 | 3.10 | 0.61 | 79 | 1008.5 |
| 20260507004038 | 7 | 200 | 8.0 | 14.5 | 0.00 | 3.10 | 0.61 | 78 | 1008.3 |
| 20260507003033 | 7 | 190 | 6.4 | 17.7 | 0.00 | 3.10 | 0.61 | 78 | 1008.3 |
| 20260507002041 | 7 | 190 | 6.4 | 14.5 | 0.00 | 3.10 | 0.61 | 78 | 1008.3 |
| 20260507001042 | 8 | 193 | 3.2 | 8.0 | 0.00 | 3.10 | 0.61 | 78 | 1007.9 |
| 20260507000031 | 8 | 223 | 1.6 | 14.5 | 0.00 | 3.10 | 0.61 | 77 | 1007.8 |
| 20260506235031 | 8 | 267 | 8.0 | 14.5 | 0.00 | 3.10 | 0.61 | 78 | 1007.8 |
| 20260506234104 | 8 | 267 | 3.2 | 8.0 | 0.00 | 3.10 | 0.61 | 78 | 1007.9 |
| 20260506233025 | 8 | 185 | 3.2 | 11.3 | 0.00 | 3.10 | 0.61 | 78 | 1007.9 |
| 20260506232052 | 8 | 244 | 4.8 | 11.3 | 0.00 | 3.10 | 0.61 | 79 | 1007.9 |
| 20260506231042 | 8 | 185 | 6.4 | 12.9 | 0.00 | 3.10 | 0.61 | 79 | 1007.7 |
| 20260506230043 | 8 | 200 | 3.2 | 9.7 | 0.00 | 3.10 | 0.61 | 78 | 1007.6 |
| 20260506225028 | 8 | 227 | 8.0 | 11.3 | 0.00 | 3.10 | 0.61 | 77 | 1007.6 |
| 20260506224029 | 8 | 216 | 8.0 | 11.3 | 0.00 | 3.10 | 0.61 | 74 | 1007.8 |
| 20260506223100 | 8 | 238 | 3.2 | 9.7 | 0.00 | 3.10 | 0.61 | 75 | 1007.5 |
| 20260506222044 | 8 | 212 | 6.4 | 11.3 | 0.00 | 3.10 | 0.61 | 75 | 1007.8 |
| 20260506221025 | 8 | 275 | 8.0 | 12.9 | 0.00 | 3.10 | 0.61 | 75 | 1007.8 |
| 20260506220035 | 8 | 272 | 4.8 | 8.0 | 0.00 | 3.10 | 0.61 | 74 | 1007.7 |
| 20260506215040 | 8 | 279 | 3.2 | 6.4 | 0.00 | 3.10 | 0.61 | 76 | 1007.9 |
| 20260506214050 | 8 | 202 | 3.2 | 9.7 | 0.00 | 3.10 | 0.61 | 75 | 1007.8 |
| 20260506213029 | 8 | 243 | 6.4 | 12.9 | 0.00 | 3.10 | 0.61 | 75 | 1007.8 |
| 20260506212036 | 8 | 286 | 4.8 | 11.3 | 0.00 | 3.10 | 0.61 | 77 | 1007.7 |
| 20260506211031 | 7 | 289 | 1.6 | 11.3 | 0.00 | 3.10 | 0.61 | 77 | 1007.8 |
| 20260506210041 | 7 | 238 | 4.8 | 12.9 | 0.00 | 3.10 | 0.61 | 76 | 1007.8 |
| 20260506205040 | 7 | 254 | 4.8 | 9.7 | 0.00 | 3.10 | 0.61 | 76 | 1008.0 |
| 20260506204030 | 7 | 219 | 4.8 | 11.3 | 0.00 | 3.10 | 0.61 | 78 | 1007.9 |
| 20260506203030 | 7 | 261 | 6.4 | 11.3 | 0.00 | 3.10 | 0.61 | 78 | 1008.0 |
| 20260506202038 | 7 | 277 | 6.4 | 9.7 | 0.10 | 3.10 | 0.61 | 79 | 1008.1 |
| 20260506201038 | 7 | 335 | 4.8 | 11.3 | 0.10 | 3.10 | 0.61 | 81 | 1008.2 |
| 20260506200028 | 7 | 292 | 6.4 | 11.3 | 0.10 | 3.10 | 0.61 | 82 | 1008.3 |
| 20260506195024 | 7 | 256 | 6.4 | 12.9 | 0.10 | 3.10 | 0.61 | 83 | 1008.2 |
| 20260506194034 | 7 | 267 | 6.4 | 11.3 | 0.10 | 3.10 | 0.61 | 84 | 1008.4 |
| 20260506193035 | 7 | 289 | 6.4 | 12.9 | 0.10 | 3.10 | 0.61 | 83 | 1008.3 |
| 20260506192040 | 7 | 294 | 8.0 | 11.3 | 0.00 | 3.00 | 0.61 | 83 | 1008.4 |
| 20260506191050 | 7 | 284 | 6.4 | 9.7 | 0.00 | 3.00 | 0.61 | 82 | 1008.4 |
| 20260506190051 | 7 | 271 | 3.2 | 6.4 | 0.00 | 3.00 | 0.61 | 81 | 1008.4 |
| 20260506185034 | 7 | 271 | 6.4 | 11.3 | 0.00 | 3.00 | 0.61 | 82 | 1008.5 |
| 20260506184034 | 7 | 264 | 3.2 | 8.0 | 0.00 | 3.00 | 0.61 | 81 | 1008.4 |
| 20260506183044 | 7 | 165 | 3.2 | 4.8 | 0.00 | 3.00 | 0.61 | 83 | 1008.3 |
| 20260506182044 | 7 | 161 | 4.8 | 8.0 | 0.00 | 3.00 | 0.61 | 83 | 1008.2 |
| 20260506181034 | 7 | 202 | 6.4 | 11.3 | 0.00 | 3.00 | 0.61 | 83 | 1008.3 |
| 20260506180106 | 8 | 120 | 1.6 | 4.8 | 0.00 | 3.00 | 0.61 | 85 | 1008.4 |
| 20260506175026 | 8 | 165 | 3.2 | 8.0 | 0.00 | 3.00 | 0.61 | 87 | 1008.5 |
| 20260506174051 | 8 | 159 | 1.6 | 3.2 | 0.00 | 3.00 | 0.61 | 89 | 1008.6 |
| 20260506173031 | 7 | 151 | 1.6 | 4.8 | 0.00 | 3.00 | 0.61 | 88 | 1008.9 |
| 20260506172041 | 7 | 181 | 4.8 | 6.4 | 0.00 | 3.00 | 0.61 | 88 | 1009.1 |
| 20260506171113 | 7 | 171 | 0.0 | 3.2 | 0.00 | 3.00 | 0.61 | 89 | 1009.2 |
| 20260506170032 | 6 | 171 | 1.6 | 6.4 | 0.00 | 3.00 | 0.61 | 89 | 1009.3 |
| 20260506165103 | 6 | 249 | 0.0 | 9.7 | 0.00 | 3.00 | 0.61 | 89 | 1009.5 |
| 20260506164038 | 6 | 156 | 1.6 | 8.0 | 0.10 | 3.00 | 0.61 | 89 | 1009.5 |
| 20260506163049 | 7 | 175 | 1.6 | 4.8 | 0.10 | 3.00 | 0.61 | 91 | 1009.5 |
| 20260506162034 | 6 | 157 | 1.6 | 6.4 | 0.20 | 3.00 | 0.61 | 89 | 1009.7 |
| 20260506161044 | 6 | 168 | 1.6 | 4.8 | 0.30 | 3.00 | 0.61 | 91 | 1009.9 |
| 20260506160045 | 6 | 171 | 1.6 | 8.0 | 0.41 | 3.00 | 0.61 | 89 | 1009.8 |
| 20260506155033 | 5 | 161 | 1.6 | 11.3 | 0.41 | 3.00 | 0.61 | 90 | 1010.1 |
| 20260506154033 | 5 | 190 | 6.4 | 12.9 | 0.41 | 2.90 | 0.58 | 89 | 1010.1 |
| 20260506153045 | 5 | 190 | 6.4 | 12.9 | 0.51 | 2.90 | 0.58 | 89 | 1010.1 |
| 20260506152041 | 5 | 180 | 6.4 | 9.7 | 0.51 | 2.79 | 0.56 | 89 | 1010.1 |
| 20260506151031 | 5 | 182 | 6.4 | 12.9 | 0.51 | 2.69 | 0.53 | 89 | 1010.3 |
| 20260506150032 | 5 | 244 | 4.8 | 11.3 | 0.61 | 2.59 | 0.51 | 89 | 1010.2 |
| 20260506145043 | 5 | 172 | 6.4 | 12.9 | 0.71 | 2.59 | 0.51 | 89 | 1010.3 |
| 20260506144025 | 5 | 191 | 4.8 | 11.3 | 0.71 | 2.49 | 0.51 | 89 | 1010.1 |
| 20260506143055 | 6 | 217 | 4.8 | 9.7 | 0.71 | 2.39 | 0.48 | 89 | 1010.0 |
| 20260506142046 | 5 | 225 | 8.0 | 14.5 | 0.71 | 2.31 | 0.46 | 89 | 1009.9 |
| 20260506141105 | 6 | 208 | 3.2 | 12.9 | 0.71 | 2.21 | 0.43 | 89 | 1010.1 |
| 20260506140029 | 5 | 225 | 6.4 | 12.9 | 0.61 | 2.11 | 0.41 | 89 | 1010.0 |
| 20260506135031 | 6 | 184 | 6.4 | 11.3 | 0.61 | 2.01 | 0.38 | 88 | 1010.2 |
| 20260506134042 | 6 | 185 | 8.0 | 14.5 | 0.51 | 1.91 | 0.36 | 88 | 1009.9 |
| 20260506133024 | 6 | 198 | 4.8 | 12.9 | 0.51 | 1.80 | 0.33 | 88 | 1009.9 |
| 20260506132034 | 6 | 246 | 4.8 | 12.9 | 0.61 | 1.70 | 0.33 | 88 | 1009.8 |
| 20260506131036 | 6 | 186 | 6.4 | 12.9 | 0.61 | 1.60 | 0.30 | 87 | 1009.9 |
| 20260506130042 | 6 | 195 | 8.0 | 12.9 | 0.51 | 1.50 | 0.28 | 87 | 1009.6 |
| 20260506125040 | 6 | 189 | 4.8 | 11.3 | 0.51 | 1.40 | 0.25 | 87 | 1009.6 |
| 20260506124051 | 6 | 211 | 8.0 | 11.3 | 0.61 | 1.40 | 0.25 | 87 | 1009.8 |
| 20260506123041 | 6 | 148 | 3.2 | 11.3 | 0.61 | 1.30 | 0.23 | 86 | 1009.6 |
| 20260506122041 | 6 | 178 | 4.8 | 14.5 | 0.41 | 1.09 | 0.20 | 86 | 1009.5 |
| 20260506121050 | 6 | 182 | 4.8 | 9.7 | 0.41 | 0.99 | 0.18 | 86 | 1009.8 |
| 20260506120054 | 6 | 194 | 6.4 | 8.0 | 0.51 | 1.19 | 0.18 | 86 | 1009.9 |
| 20260506115034 | 6 | 228 | 4.8 | 9.7 | 0.51 | 1.09 | 0.15 | 85 | 1010.0 |
| 20260506114044 | 6 | 234 | 8.0 | 14.5 | 0.51 | 0.99 | 0.15 | 86 | 1010.1 |
| 20260506113025 | 6 | 246 | 3.2 | 9.7 | 0.41 | 0.89 | 0.13 | 86 | 1010.2 |
| 20260506112035 | 6 | 229 | 6.4 | 12.9 | 0.51 | 0.89 | 0.13 | 85 | 1010.2 |
| 20260506111035 | 7 | 253 | 6.4 | 16.1 | 0.41 | 0.79 | 0.10 | 85 | 1010.0 |
| 20260506110045 | 7 | 267 | 4.8 | 16.1 | 0.30 | 0.71 | 0.08 | 84 | 1009.9 |
| 20260506105041 | 7 | 232 | 8.0 | 16.1 | 0.30 | 0.61 | 0.05 | 84 | 1009.9 |
| 20260506104031 | 7 | 253 | 6.4 | 16.1 | 0.20 | 0.51 | 0.05 | 85 | 1009.6 |
| 20260506103030 | 7 | 263 | 6.4 | 12.9 | 0.20 | 0.51 | 0.05 | 85 | 1009.4 |
| 20260506102041 | 7 | 188 | 4.8 | 12.9 | 0.10 | 0.41 | 0.03 | 85 | 1009.2 |
| 20260506101040 | 7 | 229 | 4.8 | 9.7 | 0.10 | 0.41 | 0.03 | 85 | 1009.2 |
| 20260506100030 | 8 | 225 | 6.4 | 16.1 | 0.10 | 0.41 | 0.03 | 84 | 1009.3 |
| 20260506095031 | 8 | 248 | 9.7 | 19.3 | 0.00 | 0.30 | 0.00 | 83 | 1009.2 |
| 20260506094100 | 8 | 229 | 8.0 | 22.5 | 0.00 | 0.30 | 0.00 | 81 | 1009.3 |
| 20260506093050 | 8 | 223 | 9.7 | 20.9 | 0.00 | 0.30 | 0.00 | 80 | 1009.3 |
| 20260506092029 | 8 | 242 | 9.7 | 14.5 | 0.00 | 0.30 | 0.00 | 80 | 1009.1 |
| 20260506091058 | 8 | 196 | 8.0 | 16.1 | 0.00 | 0.30 | 0.00 | 80 | 1009.0 |
| 20260506090049 | 8 | 269 | 8.0 | 12.9 | 0.00 | 0.30 | 0.00 | 80 | 1009.0 |
| 20260506085033 | 8 | 223 | 6.4 | 22.5 | 0.00 | 0.30 | 0.00 | 80 | 1008.8 |
| 20260506084031 | 8 | 271 | 6.4 | 22.5 | 0.00 | 0.30 | 0.00 | 80 | 1009.0 |
| 20260506083041 | 8 | 269 | 9.7 | 19.3 | 0.00 | 0.30 | 0.00 | 79 | 1009.1 |
| 20260506082050 | 8 | 214 | 12.9 | 24.1 | 0.00 | 0.30 | 0.00 | 79 | 1009.3 |
| 20260506081054 | 8 | 233 | 6.4 | 17.7 | 0.00 | 0.30 | 0.00 | 79 | 1009.1 |
| 20260506080104 | 8 | 229 | 8.0 | 16.1 | 0.00 | 0.30 | 0.00 | 79 | 1008.9 |
| 20260506073041 | 9 | 228 | 11.3 | 22.5 | 0.00 | 0.30 | 0.00 | 79 | 1009.1 |
| 20260506072041 | 9 | 251 | 9.7 | 29.0 | 0.00 | 0.30 | 0.00 | 79 | 1008.9 |
| 20260506071050 | 9 | 231 | 12.9 | 25.7 | 0.00 | 0.30 | 0.00 | 79 | 1008.9 |